Port Hedland, Australia

6:55 PM AWST on August 24, 2017 (GMT +0800)
Port Hedland International

Weather History for YPPD - December, 2012

Change the Weather History Date:

Saturday, December 8, 2012

  Actual Average Record
Temperature  
Mean Temperature 91 °F -  
Max Temperature 102 °F 98 °F 111 °F (2014)
Min Temperature 80 °F 76 °F 71 °F (2006)
Cooling Degree Days 26    
Growing Degree Days 41 (Base 50)    
Moisture  
Dew Point 64 °F    
Average Humidity 43    
Maximum Humidity 79    
Minimum Humidity 19    
Precipitation  
Precipitation 0.00 in 0.04 in - ()
Sea Level Pressure  
Sea Level Pressure 29.89 in    
Wind  
Wind Speed 12 mph ()    
Max Wind Speed 22 mph    
Max Gust Speed 31 mph    
Visibility 6.2 miles    
Events      
Averages and records for this station are not official NWS values.
T = Trace of Precipitation, MM = Missing Value Source: Averaged Metar Reports

Daily Weather History Graph

Daily Weather History Graph

Search for Another Location

Airport or City:

Trip Planner

Search our weather history database for the weather conditions in past years. The results will help you decide how hot, cold, wet, or windy it might be!

Date:

Astronomy

Dec. 08, 2012 Rise Set
Actual Time 5:17 AM AWST 6:37 PM AWST
Civil Twilight 4:53 AM AWST 7:01 PM AWST
Nautical Twilight 4:24 AM AWST 7:31 PM AWST
Astronomical Twilight 3:53 AM AWST 8:01 PM AWST
Moon 12:42 AM AWST (12/8) 1:21 PM AWST (12/8)
Length of Visible Light 14h 08m
Length of Day
13h 19m
Waning Crescent, 34% of the Moon is Illuminated
Dec 8
Waning Crescent
Dec 13
New
Dec 20
First Quarter
Dec 28
Full
Jan 5
Last Quarter

Hourly Weather History & Observations

Time (AWST) Temp. Heat Index Dew Point Humidity Pressure Visibility Wind Dir Wind Speed Gust Speed Precip Events Conditions
12:00 AM 82 °F - 74 °F 69% 29.90 in - South 6.9 mph - -  
12:00 AM 82.4 °F 88.2 °F 73.4 °F 74% 29.89 in 6.2 mi South 6.9 mph - N/A   Unknown
12:30 AM 80.6 °F 85.4 °F 73.4 °F 79% 29.89 in 6.2 mi South 5.8 mph - N/A   Unknown
1:00 AM 82.4 °F 87.2 °F 71.6 °F 70% 29.89 in 6.2 mi SSW 8.1 mph - N/A   Unknown
1:30 AM 84.2 °F 87.3 °F 68.0 °F 58% 29.89 in 6.2 mi SSE 12.7 mph - N/A   Scattered Clouds
2:00 AM 85 °F - 65 °F 41% 29.89 in - SE 15.0 mph - -  
2:00 AM 86.0 °F 87.3 °F 64.4 °F 48% 29.89 in 6.2 mi SE 15.0 mph - N/A   Scattered Clouds
2:30 AM 86.0 °F 87.3 °F 64.4 °F 48% 29.89 in 6.2 mi SSE 15.0 mph - N/A   Unknown
3:00 AM 85 °F - 64 °F 40% 29.88 in - SSE 12.7 mph - -  
3:00 AM 86.0 °F 87.3 °F 64.4 °F 48% 29.89 in 6.2 mi SSE 12.7 mph - N/A   Unknown
3:30 AM 86.0 °F 87.3 °F 64.4 °F 48% 29.89 in 6.2 mi SE 12.7 mph - N/A   Unknown
4:00 AM 86.0 °F 87.3 °F 64.4 °F 48% 29.89 in 6.2 mi SE 15.0 mph - N/A   Unknown
4:30 AM 86.0 °F 88.2 °F 66.2 °F 51% 29.89 in 6.2 mi ESE 15.0 mph - N/A   Unknown
5:00 AM 85 °F - 67 °F 45% 29.89 in - ESE 16.1 mph - -  
5:00 AM 84.2 °F 86.6 °F 66.2 °F 55% 29.89 in 6.2 mi ESE 16.1 mph - N/A   Unknown
5:30 AM 84.2 °F 86.6 °F 66.2 °F 55% 29.89 in 6.2 mi ESE 16.1 mph - N/A   Unknown
6:00 AM 85 °F - 65 °F 41% 29.92 in - SE 15.0 mph - -  
6:00 AM 86.0 °F 87.3 °F 64.4 °F 48% 29.92 in 6.2 mi SE 15.0 mph - N/A   Unknown
6:30 AM 86.0 °F 87.3 °F 64.4 °F 48% 29.92 in 6.2 mi ESE 15.0 mph - N/A   Unknown
7:00 AM 87.8 °F 88.5 °F 62.6 °F 43% 29.92 in 6.2 mi ESE 19.6 mph - N/A   Unknown
7:30 AM 89.6 °F 90.1 °F 62.6 °F 40% 29.92 in 6.2 mi ESE 17.3 mph - N/A   Unknown
8:00 AM 91 °F - 62 °F 28% 29.92 in - ESE 20.7 mph - -  
8:00 AM 91.4 °F 92.1 °F 62.6 °F 38% 29.92 in 6.2 mi ESE 20.7 mph - N/A   Unknown
8:30 AM 93.2 °F 93.3 °F 60.8 °F 34% 29.92 in 6.2 mi ESE 20.7 mph - N/A   Unknown
9:00 AM 96 °F - 58 °F 19% 29.91 in - ESE 19.6 mph - -  
9:00 AM 96.8 °F 96.2 °F 59.0 °F 28% 29.89 in 6.2 mi ESE 19.6 mph - N/A   Unknown
9:08 AM 96.8 °F 95.8 °F 57.2 °F 27% 29.89 in 6.2 mi ESE 19.6 mph 31.1 mph N/A   Unknown
9:30 AM 98.6 °F 97.6 °F 57.2 °F 25% 29.89 in 6.2 mi ESE 21.9 mph - N/A   Unknown
10:00 AM 100.4 °F 99.7 °F 57.2 °F 24% 29.89 in 6.2 mi East 20.7 mph - N/A   Unknown
10:30 AM 102.2 °F 100.9 °F 55.4 °F 21% 29.86 in 6.2 mi ESE 17.3 mph - N/A   Unknown
11:00 AM - - - %  in - Calm Calm - -  
11:00 AM - - - N/A% 0.00 in - North - - N/A   Unknown
6:00 PM 95 °F - 67 °F 30% 29.83 in - SW 9.2 mph - -  
6:00 PM 95.0 °F 99.5 °F 68.0 °F 41% 29.83 in - SW 9.2 mph - N/A   Unknown
6:30 PM 93.2 °F 93.3 °F 60.8 °F 34% 29.83 in - SSW 12.7 mph - N/A   Unknown
7:00 PM 93.2 °F 94.1 °F 62.6 °F 36% 29.83 in - South 6.9 mph - N/A   Unknown
7:30 PM 91.4 °F 92.1 °F 62.6 °F 38% 29.83 in - SE 5.8 mph - N/A   Unknown
8:00 PM 90 °F - 63 °F 30% 29.86 in - SSW 5.8 mph - -  
8:00 PM 89.6 °F 90.1 °F 62.6 °F 40% 29.86 in - SSW 5.8 mph - N/A   Unknown
8:30 PM 91.4 °F 92.1 °F 62.6 °F 38% 29.86 in - SE 8.1 mph - N/A   Unknown
9:00 PM 90 °F - 62 °F 29% 29.90 in - SSW 12.7 mph - -  
9:00 PM 89.6 °F 89.5 °F 60.8 °F 38% 29.89 in - SSW 12.7 mph - N/A   Unknown
9:30 PM 89.6 °F 90.1 °F 62.6 °F 40% 29.89 in - SW 10.4 mph - N/A   Unknown
10:00 PM 87.8 °F 89.4 °F 64.4 °F 46% 29.89 in - SW 9.2 mph - N/A   Unknown
10:30 PM 87.8 °F 88.5 °F 62.6 °F 43% 29.89 in - SSW 12.7 mph - N/A   Unknown
11:00 PM 87 °F - 64 °F 37% 29.88 in - SSW 10.4 mph - -  
11:00 PM 86.0 °F 87.3 °F 64.4 °F 48% 29.86 in - SSW 10.4 mph - N/A   Unknown
11:30 PM 86.0 °F 88.2 °F 66.2 °F 51% 29.86 in - SSW 11.5 mph - N/A   Unknown